Location: Doschendorf
(50.0069°N, 11.0602°E)
Time: 06:07:19
(UTC+00:00)

ATLAS 5 CENTAUR R/B - Pass Details

Date: 17 November 2019
Orbit: 563 x 1096 km, 63.3° (Epoch: 09 December)

Event Time Altitude Azimuth Distance (km) Brightness Sun altitude
Rises 16:53:58 0° 313° (NW) 3,315 5.8 -13.4°
Reaches altitude 10° 16:56:21 10° 308° (NW) 2,461 5.2 -13.8°
Maximum altitude 17:01:48 46° 237° (WSW) 1,233 3.5 -14.6°
Drops below altitude 10° 17:08:00 10° 167° (SSE) 2,782 4.9 -15.6°
Sets 17:10:50 0° 161° (SSE) 3,789 5.5 -16.1°
